Find Starlink 34966

NORAD ID: 65257 Int'l Des: 2025-179 Owner: SPXS Country: US Constellation: starlink operational
LEOCIRCULARRETROGRADESSO

Live-Position

3D-Globus wird geladen...

Über Starlink 34966

Beschreibung wird geladen...

Nächste Überflüge

Passes for default location (London). Set your location on the main map for personalized predictions.

Höhenverlauf

Loading altitude history...

Zweizeiliger Elementsatz

1 65257U 25179Y 26105.59422065 .00002713 00000-0 19214-3 0 9999
2 65257 97.6034 149.3799 0001418 102.0790 258.0596 15.05650564 37485
Epoch: 15. Apr. 2026 • Age: 10 hours

Aktueller Status

Höhe 551.7 km
Geschwindigkeit 7.59 km/s
Subsatellitenpunkt 20.43°N, 120.41°E
Startdatum 18. Aug. 2025
Alter 0.6 years
Typ internet

Technische Details

Klassifizierung Payload
Masse 575.00 kg
Trockenmasse 530.00 kg
Gesamtmasse 575.00 kg
Länge 0.30 m
Durchmesser 4.10 m
Spannweite 29.00 m
Form Box + pan
Hersteller SPXS
Bus-Typ Starlink V2MO
Phasenstatus In Orbit
Besitzer/Staat SPXS/US

Most Searched